Temp
44 43 43 42 43 43 43 44 46 47 47 48 49 51 54 54 54 54 53 53 51 49
44 44 43 44 43 44 45 48 48 48 47 48 49 49 50 52 52 53 52 51 51 52
44 45 44 45 45 45 45 46 46 46 46 47 48 47 46 47 48 47 47 47 47 48
44 44 43 44 45 45 45 48 51 48 47 47 47 46 46 47 47 46 45 45 44 44
45 42 44 45 45 46 49 51 52 48 47 47 47 46 46 46 46 45 44 44 44 44
43 46 47 45 45 45 45 46 47 47 46 46 46 45 46 46 45 45 44 44 43 44
47 46 44 44 44 45 45 45 45 45 45 45 45 45 45 46 45 44 44 43 44 44
46 44 44 44 45 45 45 45 45 44 44 43 45 47 44 46 46 44 43 43 44 44
44 45 44 44 44 45 45 45 44 43 42 41 45 47 49 48 45 44 42 41 42 42
44 44 44 44 43 44 44 43 43 42 41 40 40 46 47 49 43 43 41 41 41 43
44 44 44 43 42 41 42 43 42 41 40 39 42 46 45 47 41 40 41 42 42 41
44 43 43 43 41 39 40 41 42 41 40 38 39 45 44 43 40 41 41 42 42 42
44 43 41 40 40 39 39 42 43 42 39 44 39 43 44 43 40 39 40 41 43 47
44 42 39 38 38 38 39 40 39 39 38 39 40 40 43 43 39 38 38 40 41 43
MSLP
1023.62 1023.39 1023.10 1022.78 1022.34 1021.87 1021.36 1020.84 1020.17 1019.64 1019.22 1018.76 1018.22 1017.62 1016.99 1016.80 1016.43 1016.09 1015.72 1015.26 1014.92 1014.72
1023.67 1023.34 1023.04 1022.60 1022.29 1021.83 1021.26 1020.68 1020.21 1019.86 1019.51 1019.00 1018.57 1018.12 1017.71 1017.42 1017.10 1016.75 1016.45 1016.11 1015.70 1015.32
1023.79 1023.48 1023.14 1022.72 1022.34 1021.87 1021.39 1020.93 1020.53 1020.17 1019.86 1019.47 1019.01 1018.66 1018.34 1017.98 1017.69 1017.34 1017.10 1016.83 1016.45 1016.20
1023.84 1023.63 1023.34 1022.97 1022.60 1022.13 1021.63 1021.07 1020.66 1020.46 1020.16 1019.83 1019.47 1019.13 1018.73 1018.33 1018.05 1017.79 1017.60 1017.32 1017.09 1016.94
1024.04 1023.76 1023.44 1023.19 1022.78 1022.24 1021.84 1021.14 1020.90 1020.70 1020.37 1019.98 1019.62 1019.25 1018.96 1018.75 1018.48 1018.34 1018.18 1017.95 1017.64 1017.47
1024.10 1023.89 1023.72 1023.44 1022.96 1022.46 1022.05 1021.63 1021.21 1020.87 1020.58 1020.30 1020.01 1019.69 1019.38 1019.10 1018.84 1018.71 1018.51 1018.21 1017.98 1017.73
1024.31 1024.19 1023.97 1023.57 1023.07 1022.63 1022.32 1022.08 1021.80 1021.48 1021.14 1020.76 1020.40 1020.06 1019.75 1019.43 1019.16 1018.97 1018.70 1018.36 1018.05 1017.75
1024.66 1024.35 1023.99 1023.59 1023.23 1022.90 1022.71 1022.57 1022.27 1022.00 1021.67 1021.21 1020.66 1020.36 1019.91 1019.56 1019.26 1019.12 1018.96 1018.62 1018.23 1017.81
1024.81 1024.46 1024.12 1023.75 1023.40 1023.07 1022.82 1022.65 1022.51 1022.40 1022.18 1021.74 1021.17 1020.57 1019.91 1019.62 1019.47 1019.29 1019.13 1018.91 1018.31 1017.87
1025.01 1024.65 1024.23 1023.82 1023.42 1023.08 1022.85 1022.75 1022.77 1022.66 1022.45 1022.08 1021.46 1020.78 1020.14 1019.87 1019.70 1019.48 1019.18 1018.80 1018.33 1017.71
1025.11 1024.78 1024.22 1023.87 1023.58 1023.15 1022.85 1022.83 1022.89 1022.86 1022.62 1022.30 1021.80 1021.18 1020.62 1020.24 1019.94 1019.57 1019.07 1018.68 1018.27 1017.85
1024.97 1024.70 1024.40 1024.13 1023.79 1023.43 1023.18 1022.98 1022.98 1022.99 1022.85 1022.61 1022.01 1021.42 1020.91 1020.39 1019.93 1019.51 1019.01 1018.54 1018.10 1017.76
1025.05 1024.84 1024.66 1024.46 1024.23 1023.90 1023.56 1023.33 1023.20 1023.10 1022.96 1022.63 1022.20 1021.54 1021.08 1020.65 1020.24 1019.97 1019.54 1018.68 1018.09 1017.47
1025.11 1025.11 1024.94 1024.70 1024.55 1024.34 1023.97 1023.66 1023.55 1023.41 1023.10 1022.82 1022.42 1021.84 1021.38 1020.92 1020.57 1020.39 1020.02 1019.42 1018.76 1018.01
Wind_Speed
6 3 3 3 4 4 3 4 5 6 6 7 7 7 8 6 7 8 7 8 5 2
6 6 5 7 5 4 5 5 6 6 6 7 7 8 8 6 7 7 7 8 9 7
5 6 6 5 6 6 6 6 6 6 6 6 6 6 6 5 5 6 5 4 7 7
5 6 6 5 5 6 5 6 5 5 6 5 5 6 5 5 6 7 6 6 6 7
6 6 6 6 6 6 7 7 6 5 5 6 6 6 6 6 6 6 7 6 7 6
6 6 6 6 7 6 6 7 8 8 8 7 6 6 6 6 6 6 6 6 5 6
7 7 6 6 6 7 7 7 7 7 7 7 6 6 6 5 6 6 6 5 5 5
6 6 6 7 7 7 6 5 6 6 7 7 6 5 5 4 5 6 7 7 6 6
6 6 7 6 7 6 6 6 6 6 7 8 6 15 9 1 5 6 6 6 7 6
6 7 7 7 6 6 4 3 4 5 6 7 7 16 12 10 5 5 6 6 6 7
6 6 7 6 6 5 3 2 1 4 6 6 6 13 12 10 5 5 6 6 7 6
6 6 6 7 8 5 3 1 2 2 5 6 6 11 10 7 6 6 7 6 6 6
6 6 6 5 6 5 3 3 2 3 4 6 6 10 12 9 4 6 6 8 7 12
5 5 4 4 4 4 4 4 5 6 5 5 5 8 10 11 4 3 4 4 6 6
Wind_Direction
360 344 316 305 317 314 308 305 307 329 333 331 334 337 344 344 349 349 347 352 357 309
354 356 339 337 333 320 320 334 341 339 345 350 351 347 347 355 2 9 11 13 18 17
352 352 347 340 348 342 335 346 349 350 352 350 345 348 356 2 1 20 7 6 18 17
350 355 350 353 345 349 338 341 353 358 354 359 359 359 8 10 13 25 20 15 26 20
356 358 357 357 340 346 353 2 12 7 2 6 8 6 18 18 14 21 14 5 14 12
0 359 355 344 339 355 1 358 2 8 8 4 3 7 11 17 8 10 2 356 1 353
358 352 347 338 353 358 1 3 358 359 357 357 354 360 351 350 354 7 6 7 11 354
352 343 344 352 349 346 353 350 359 4 357 352 356 354 321 327 344 4 360 357 354 340
342 340 337 332 333 336 342 5 18 13 2 356 347 348 360 313 344 356 1 338 327 328
338 333 326 330 335 327 325 353 358 358 5 356 344 356 13 38 10 351 326 314 312 316
328 321 329 345 351 343 332 341 37 11 8 4 340 354 360 6 355 335 324 320 318 313
327 332 338 352 346 337 344 27 77 40 15 1 340 344 354 356 352 345 334 327 319 323
337 348 344 340 333 337 355 56 54 7 1 338 340 338 352 358 344 357 340 332 338 343
341 336 357 357 352 332 11 32 19 7 346 342 330 325 328 337 349 341 325 335 342 338